{"data":{"norad_id":68268,"intl_designator":"2026-055G","name":"STARLINK-36999","alt_names":[],"object_type":"PAYLOAD","status":"ACTIVE","operator":null,"country":"US","launch_date":"2026-03-19","launch_site_code":"AFETR","launch_vehicle":null,"mission":null,"orbit_class":"UNKNOWN","rcs_meters":null,"size_class":null,"mass_kg":null,"dimensions":null,"purposes":["comms"],"wikipedia_slug":null,"has_3d_model":false,"image_url":null,"decayed_at":null,"tle_current":{"epoch":"2026-05-24T19:14:43.746144Z","epoch_age_seconds":82342,"freshness":"FRESH","line1":"1 68268U 26055G   26144.80189521  .00023453  00000+0  70300-3 0  9998","line2":"2 68268  53.1597 324.3156 0000689  99.2975 260.8106 15.34404090 11601","mean_motion":15.3440409,"eccentricity":6.89e-5,"inclination_deg":53.1597,"raan_deg":324.3156,"arg_perigee_deg":99.2975,"mean_anomaly_deg":260.8106,"bstar":0.000703,"rev_number":1160,"period_min":93.847507927328,"perigee_km":462.2197508372,"apogee_km":463.16241694716,"semimajor_km":6840.8280838922,"source":"CELESTRAK","updated_at":"2026-05-25T13:38:21.891179Z"}}}